Wind_Speed
5 5 5 6 6 6 6 7 7 7 8 9 9 9 11 12 13 13 12 12 13 13 12 12 11 10 10 9 8 9 8 7 7 7 7 6 5 4 4 3 2 2 1 1
5 5 5 5 6 6 7 7 7 7 7 8 9 9 10 12 12 14 13 13 13 13 12 12 11 10 10 9 8 8 8 8 7 7 7 6 5 5 4 3 3 3 2 2
4 5 6 5 6 7 7 7 7 7 7 7 8 9 10 11 11 13 14 14 13 13 13 13 11 10 10 9 9 8 8 8 8 7 7 6 5 5 5 4 4 3 3 3
4 5 5 5 6 7 7 7 7 7 7 7 8 9 10 11 12 13 13 13 13 13 13 12 11 10 10 9 9 9 8 8 8 8 7 7 6 6 5 5 4 4 3 3
5 4 5 5 6 6 7 6 6 6 6 7 8 9 10 11 13 13 13 13 13 13 13 12 11 11 10 9 9 10 9 8 8 8 8 8 7 7 6 6 5 4 4 4
6 5 6 6 6 6 7 6 6 6 6 7 8 9 10 12 12 13 13 14 13 13 13 12 12 11 10 10 10 9 9 9 9 9 9 8 8 7 7 6 6 5 4 4
6 5 5 5 6 6 6 7 6 6 6 7 7 9 10 12 12 12 13 13 13 13 13 13 13 13 12 11 10 9 9 9 9 9 9 9 9 8 8 7 6 6 5 5
6 6 5 5 5 6 6 7 7 7 7 7 7 8 10 10 12 12 13 13 13 14 14 14 14 13 12 12 10 10 10 9 9 9 10 10 9 9 8 7 7 6 6 6
7 7 6 6 6 6 7 8 8 8 7 8 8 8 9 10 11 11 12 13 13 14 15 15 15 14 13 12 11 11 11 10 10 10 10 10 10 9 9 8 8 8 7 7
9 8 7 6 6 6 7 7 7 7 8 7 7 8 10 10 11 11 12 13 14 14 15 15 15 15 14 13 13 12 11 11 11 11 11 10 10 9 9 9 9 9 8 8
9 9 8 8 7 6 6 7 7 8 8 8 8 9 10 11 11 12 12 13 14 15 15 15 15 15 14 13 13 13 12 12 12 12 12 11 11 11 10 10 9 10 10 10
11 10 9 9 8 8 8 7 8 8 8 9 9 10 10 11 11 12 13 13 13 14 14 14 14 14 14 14 14 13 13 13 13 13 13 12 12 12 12 11 11 11 11 11
11 11 10 10 10 9 9 8 8 9 9 9 9 9 9 10 10 11 12 13 13 13 13 14 14 14 14 14 14 14 14 14 14 14 13 13 13 13 13 12 12 13 13 13
13 12 12 12 11 10 9 9 9 9 9 9 9 9 9 9 9 9 10 12 12 12 13 13 14 14 14 15 15 15 15 14 14 14 14 14 14 14 14 14 14 14 14 14
15 14 13 13 13 12 11 10 9 9 9 9 9 10 10 10 10 10 11 11 11 12 13 13 14 14 14 14 15 15 15 14 14 14 14 14 15 15 15 14 14 14 14 14
16 15 15 15 14 14 13 12 11 11 10 10 10 10 11 12 11 11 11 12 12 12 13 14 14 14 14 14 14 15 15 15 15 15 15 14 15 15 15 15 15 14 15 15
18 17 17 16 16 15 15 13 13 12 11 11 11 11 12 12 11 11 11 12 12 12 13 13 13 14 14 14 15 15 15 15 15 15 15 15 14 14 15 15 15 15 14 14
20 19 19 18 17 17 15 15 14 13 13 12 12 12 12 12 12 12 12 12 13 13 13 13 13 14 14 14 14 15 15 15 15 15 15 15 14 14 15 15 14 14 14 15
20 20 20 19 18 17 17 16 14 14 14 14 13 13 13 13 12 12 12 13 13 14 14 14 14 14 14 14 14 14 15 15 15 15 15 15 15 15 15 15 15 15 15 14
21 21 21 20 20 18 17 16 16 16 15 15 15 14 14 13 13 13 13 14 14 15 15 15 15 15 15 15 15 15 15 15 15 16 16 17 16 16 16 16 16 16 15 15
22 22 21 20 21 19 18 16 16 17 16 16 16 15 15 15 15 15 14 14 14 15 15 16 16 16 16 16 16 17 17 17 17 16 17 17 18 17 17 17 17 16 16 16
23 23 22 21 21 20 19 18 18 18 17 17 17 17 17 16 16 15 15 15 15 15 15 16 16 16 17 17 17 17 17 17 17 17 17 17 18 18 17 17 17 17 18 18
25 24 23 22 21 21 20 20 19 19 18 18 18 18 18 17 17 17 16 16 16 16 16 15 16 16 16 17 17 18 18 18 18 18 17 17 17 17 18 18 18 19 19 20
25 25 24 24 23 22 21 21 20 20 19 19 19 19 18 18 18 17 17 17 17 16 16 16 16 16 17 18 18 18 19 19 19 19 19 18 19 19 19 20 20 21 22 22
26 26 25 25 24 24 23 22 22 21 21 21 20 20 20 19 19 18 17 17 17 17 17 17 17 17 18 19 19 18 18 18 19 20 20 21 20 20 21 22 22 23 23 24
27 27 26 26 25 25 24 23 22 22 22 21 21 21 20 21 20 20 19 19 18 18 18 18 18 18 18 18 19 19 19 19 19 19 20 21 21 21 21 22 23 24 25 26
Wind_Direction
212 210 215 213 210 209 207 206 211 213 212 211 213 216 216 212 208 201 201 200 200 200 199 200 201 201 199 203 207 208 210 214 213 215 218 221 228 233 232 235 243 257 273 295
213 210 212 214 214 215 217 213 218 218 214 213 212 215 217 212 208 203 202 201 201 200 200 204 201 199 203 205 209 207 208 211 215 215 219 223 228 229 232 233 240 254 265 282
217 214 213 214 210 216 221 217 213 214 215 216 217 215 213 211 210 206 203 202 202 203 207 207 204 206 208 208 210 210 211 213 219 220 223 225 227 227 226 227 234 246 255 278
219 216 219 222 219 217 219 220 214 213 214 216 217 214 214 212 209 204 204 205 208 208 207 206 208 208 209 211 216 220 216 218 221 223 225 226 227 225 224 230 237 243 251 276
227 226 222 224 221 215 214 220 218 217 217 217 220 213 216 210 207 204 205 207 209 208 206 207 208 211 214 217 221 226 226 224 225 226 228 229 226 223 224 233 241 245 251 268
229 229 229 227 223 221 217 218 218 219 218 225 227 217 212 207 206 208 209 211 211 210 209 210 213 216 218 222 225 229 233 228 229 230 231 233 230 228 228 237 243 244 249 264
230 230 229 224 224 225 220 218 218 218 219 225 228 223 217 213 211 212 212 213 213 210 211 215 220 220 222 224 228 231 233 231 232 232 232 233 233 233 234 238 243 245 253 263
229 229 229 223 222 225 222 217 213 219 226 230 228 228 227 222 219 218 217 219 220 216 218 220 225 226 227 228 230 233 237 235 235 236 234 235 235 233 235 240 244 247 254 261
227 230 229 227 225 224 221 216 219 223 231 234 231 230 228 226 220 218 219 221 222 222 223 225 226 226 229 230 233 237 239 239 238 237 234 236 237 234 238 243 247 249 254 257
226 231 232 232 229 226 224 221 222 228 235 237 231 230 230 231 229 227 225 223 223 223 223 223 225 227 231 235 236 237 238 239 239 236 234 238 238 237 242 248 250 251 255 258
226 229 234 231 229 235 235 232 232 236 239 235 235 238 237 236 236 233 229 226 223 223 224 227 229 229 232 235 237 238 239 240 239 237 239 240 241 243 245 248 251 253 259 263
227 228 231 233 233 234 238 239 237 238 239 236 239 243 239 235 235 233 228 224 221 224 227 228 228 230 232 235 237 238 240 240 241 241 241 242 245 248 249 252 254 259 262 264
226 227 229 234 236 236 238 241 241 240 239 235 236 237 235 232 230 228 223 219 221 224 227 227 229 232 233 236 239 241 241 242 244 243 243 244 246 250 252 256 259 261 263 264
222 224 227 232 237 237 239 242 244 244 242 238 231 229 233 235 231 227 221 221 223 226 227 229 232 234 234 238 242 244 245 245 246 246 245 247 248 251 252 256 261 262 264 264
225 225 228 231 233 236 239 243 244 245 245 243 236 234 236 240 233 229 229 229 230 233 232 232 234 235 236 239 241 244 246 248 249 247 248 250 251 252 255 258 263 264 266 266
228 229 231 234 236 238 241 242 245 246 247 248 244 240 241 243 240 237 236 236 238 239 238 236 234 235 237 239 241 244 245 247 246 246 248 252 253 255 257 261 265 266 265 266
229 230 233 237 240 240 241 243 247 249 249 248 244 241 241 244 242 239 238 238 239 239 238 237 236 235 238 241 245 247 245 245 247 247 248 252 257 259 262 264 266 267 266 265
232 233 235 238 242 243 242 242 245 246 246 246 243 242 244 243 241 240 240 241 239 238 238 240 241 239 239 243 245 246 245 247 249 248 250 253 258 262 262 263 266 266 267 269
233 235 237 239 241 241 242 241 242 245 245 246 244 243 245 244 244 243 243 244 244 241 243 245 245 243 243 245 247 247 245 246 249 251 252 256 260 261 261 261 265 268 271 271
234 236 239 240 240 240 241 241 242 245 245 244 244 244 244 246 247 247 247 248 248 246 245 247 248 247 248 246 246 246 245 247 252 256 256 258 259 261 262 262 265 267 268 272
235 237 238 240 241 240 241 241 240 242 245 245 245 244 244 245 247 248 250 251 250 248 247 247 248 248 248 248 247 248 248 249 253 258 259 259 260 262 263 263 265 266 270 274
236 237 238 239 240 240 240 240 239 241 244 245 245 246 246 247 249 250 252 253 252 251 250 249 250 249 249 249 250 250 248 250 254 258 261 261 261 262 262 263 265 268 272 275
236 237 239 240 241 241 239 240 240 242 244 245 246 248 249 250 252 253 254 254 254 252 253 252 251 251 252 250 251 251 250 252 255 259 261 260 262 263 264 265 268 270 273 276
237 237 238 239 240 242 241 241 242 244 247 247 248 249 250 252 254 254 254 254 253 252 252 252 254 253 252 252 253 255 255 255 254 258 261 264 265 266 267 269 271 273 275 278
236 237 238 239 240 242 242 243 243 245 246 248 249 249 250 251 251 252 254 253 252 252 254 255 255 254 254 254 254 258 257 257 258 260 263 265 267 267 270 271 272 275 276 279
236 237 238 238 239 242 242 244 245 245 246 247 248 249 249 249 249 250 251 252 253 253 254 256 256 256 256 256 255 257 259 260 263 265 267 268 268 270 272 273 275 279 282 284
Height
5846 5848 5848 5849 5850 5851 5852 5853 5854 5855 5855 5857 5858 5859 5860 5861 5862 5864 5866 5868 5871 5873 5875 5877 5878 5880 5881 5882 5883 5885 5886 5887 5888 5889 5889 5890 5891 5891 5891 5891 5891 5891 5890 5890
5847 5847 5848 5848 5849 5850 5851 5852 5853 5854 5854 5856 5857 5858 5859 5860 5861 5863 5865 5867 5869 5872 5874 5876 5877 5879 5880 5881 5883 5884 5885 5886 5887 5888 5888 5889 5890 5890 5890 5890 5890 5890 5890 5890
5845 5847 5847 5847 5848 5849 5850 5851 5852 5853 5854 5854 5856 5857 5858 5859 5860 5862 5864 5866 5868 5871 5873 5874 5876 5878 5879 5880 5882 5883 5884 5885 5886 5887 5887 5888 5888 5889 5889 5889 5889 5889 5889 5889
5845 5845 5846 5846 5847 5848 5849 5850 5851 5852 5853 5854 5856 5856 5857 5858 5860 5861 5863 5865 5867 5869 5871 5873 5875 5877 5878 5879 5880 5882 5883 5884 5884 5885 5886 5887 5887 5887 5888 5888 5888 5888 5888 5888
5844 5845 5845 5846 5846 5847 5848 5849 5850 5851 5852 5853 5854 5856 5857 5857 5858 5860 5862 5864 5866 5868 5870 5872 5874 5875 5877 5878 5879 5880 5881 5882 5883 5884 5885 5885 5886 5886 5887 5887 5887 5887 5887 5887
5843 5844 5844 5845 5845 5846 5847 5849 5849 5850 5852 5853 5853 5855 5856 5856 5857 5859 5861 5863 5864 5867 5869 5871 5873 5874 5876 5877 5878 5879 5880 5881 5882 5882 5883 5884 5884 5885 5885 5886 5886 5886 5886 5886
5842 5842 5843 5844 5844 5845 5846 5848 5850 5850 5851 5852 5853 5853 5855 5855 5856 5858 5859 5861 5862 5865 5867 5869 5871 5872 5874 5875 5876 5877 5878 5879 5880 5881 5881 5882 5883 5883 5884 5884 5884 5884 5884 5884
5841 5842 5842 5843 5844 5844 5845 5847 5849 5850 5850 5851 5851 5852 5854 5854 5855 5856 5858 5859 5861 5863 5865 5867 5869 5870 5872 5873 5874 5875 5876 5877 5878 5879 5880 5880 5881 5881 5882 5882 5883 5883 5883 5883
5839 5841 5841 5841 5842 5843 5844 5845 5846 5848 5848 5849 5850 5851 5851 5852 5853 5854 5856 5857 5859 5861 5863 5865 5866 5868 5870 5871 5872 5873 5874 5875 5876 5877 5878 5879 5879 5880 5880 5880 5881 5881 5881 5881
5838 5839 5839 5840 5841 5842 5843 5843 5845 5846 5847 5848 5849 5849 5850 5850 5851 5853 5854 5855 5857 5858 5860 5862 5864 5866 5867 5869 5870 5871 5872 5873 5873 5874 5875 5876 5877 5877 5878 5878 5878 5878 5879 5878
5835 5837 5838 5839 5839 5840 5841 5842 5843 5844 5845 5846 5847 5850 5848 5848 5849 5850 5851 5852 5854 5856 5858 5860 5861 5863 5865 5866 5867 5868 5869 5870 5871 5872 5873 5874 5874 5875 5875 5875 5875 5876 5876 5876
5833 5835 5836 5837 5838 5838 5839 5840 5841 5842 5843 5843 5845 5849 5845 5846 5846 5847 5849 5850 5852 5853 5855 5857 5858 5860 5862 5863 5864 5865 5867 5868 5869 5869 5870 5871 5872 5872 5872 5873 5873 5873 5873 5873
5830 5832 5834 5835 5838 5838 5837 5838 5839 5840 5841 5841 5843 5846 5843 5843 5844 5845 5846 5848 5850 5851 5853 5854 5856 5857 5859 5860 5862 5863 5864 5865 5866 5866 5867 5868 5868 5869 5869 5869 5869 5870 5869 5869
5827 5829 5832 5834 5834 5835 5835 5836 5837 5837 5838 5839 5840 5841 5841 5841 5842 5843 5845 5846 5847 5849 5850 5852 5853 5854 5856 5857 5858 5859 5860 5861 5862 5863 5864 5865 5865 5865 5866 5866 5866 5866 5865 5865
5823 5826 5827 5829 5830 5831 5832 5833 5834 5835 5836 5837 5838 5838 5839 5839 5840 5841 5842 5844 5845 5846 5848 5849 5850 5851 5853 5854 5855 5856 5857 5858 5859 5860 5861 5861 5861 5862 5862 5862 5862 5861 5861 5861
5819 5822 5824 5826 5827 5828 5829 5830 5831 5832 5833 5834 5834 5836 5836 5836 5837 5839 5840 5841 5843 5844 5845 5845 5847 5848 5849 5850 5851 5852 5853 5854 5855 5856 5857 5857 5858 5858 5858 5858 5857 5857 5857 5857
5815 5818 5820 5822 5823 5824 5826 5828 5828 5829 5830 5831 5832 5833 5833 5834 5835 5836 5837 5838 5840 5840 5841 5842 5843 5844 5846 5847 5848 5849 5850 5851 5852 5853 5853 5854 5854 5854 5854 5854 5853 5853 5852 5852
5811 5813 5815 5817 5820 5821 5824 5824 5824 5825 5826 5827 5828 5829 5830 5831 5832 5833 5834 5835 5836 5837 5838 5839 5840 5841 5842 5843 5844 5845 5846 5847 5848 5849 5849 5850 5850 5850 5850 5850 5850 5849 5849 5849
5806 5808 5811 5813 5814 5816 5818 5819 5820 5822 5823 5824 5825 5826 5827 5828 5829 5830 5831 5831 5832 5833 5834 5835 5837 5838 5839 5840 5841 5842 5843 5844 5844 5845 5846 5846 5846 5846 5847 5846 5846 5846 5845 5845
5801 5803 5806 5808 5810 5812 5815 5815 5816 5818 5819 5820 5821 5822 5823 5824 5826 5827 5827 5828 5829 5830 5831 5832 5833 5834 5835 5836 5837 5838 5839 5840 5840 5841 5841 5842 5842 5842 5843 5842 5842 5842 5842 5841
5795 5797 5800 5802 5804 5807 5809 5810 5812 5815 5816 5816 5816 5818 5819 5820 5822 5822 5823 5824 5825 5826 5827 5828 5829 5830 5831 5832 5833 5834 5835 5835 5836 5837 5837 5837 5838 5838 5838 5838 5838 5838 5837 5837
5790 5792 5794 5796 5799 5803 5804 5805 5807 5809 5810 5811 5812 5813 5815 5816 5817 5818 5819 5820 5821 5822 5823 5823 5824 5826 5827 5828 5828 5829 5830 5831 5832 5832 5833 5833 5833 5833 5833 5833 5833 5833 5833 5832
5783 5787 5789 5792 5796 5796 5798 5799 5801 5803 5804 5806 5807 5809 5810 5811 5812 5813 5814 5815 5816 5817 5818 5819 5820 5821 5822 5823 5824 5825 5826 5826 5827 5827 5828 5828 5828 5829 5829 5829 5828 5828 5827 5827
5777 5780 5782 5785 5787 5789 5791 5793 5795 5797 5799 5800 5802 5804 5805 5806 5807 5808 5810 5810 5811 5812 5813 5814 5815 5816 5817 5818 5819 5820 5820 5821 5822 5823 5823 5823 5823 5823 5823 5823 5823 5822 5822 5821
5771 5773 5775 5778 5781 5783 5785 5787 5789 5791 5793 5795 5796 5798 5799 5801 5802 5803 5804 5805 5807 5808 5809 5810 5810 5811 5812 5813 5814 5814 5815 5816 5817 5817 5818 5818 5818 5818 5817 5817 5816 5816 5815 5814
5763 5766 5769 5772 5774 5777 5779 5781 5783 5785 5787 5788 5790 5792 5793 5795 5796 5798 5799 5800 5801 5802 5803 5804 5805 5806 5807 5808 5808 5809 5810 5810 5811 5812 5812 5812 5812 5811 5811 5810 5810 5809 5808 5807